Location: Unspecified
(0.0000°N, 0.0000°E)
Time: 02:12:43
(UTC+02:00)

PROBA 2 - Visible Passes

Search period start: 29 August 2016 00:00
Search period end: 08 September 2016 00:00
Orbit: 706 x 726 km, 98.3° (Epoch: 28 August)

Date Brightness Start Highest point End Pass type
(mag) Time Alt. Az. Time Alt. Az. Time Alt. Az.
29 Aug ? 07:30:06 10° ESE 07:33:32 19° ENE 07:36:57 10° NNE visible
29 Aug ? 21:33:34 10° WNW 21:34:34 11° WNW 21:35:35 10° W visible
30 Aug ? 20:39:03 10° N 20:43:39 50° WNW 20:48:17 10° SSW visible
31 Aug ? 07:26:18 10° ESE 07:29:26 17° ENE 07:32:32 10° NE visible
31 Aug ? 21:28:34 10° NW 21:30:28 12° WNW 21:32:22 10° WSW visible
01 Sep ? 20:34:52 10° N 20:39:31 58° WNW 20:44:14 10° SSW visible
02 Sep ? 07:22:34 10° ESE 07:25:19 15° ENE 07:28:02 10° NE visible
02 Sep ? 21:23:53 10° NW 21:26:20 14° WNW 21:28:48 10° WSW visible
03 Sep ? 20:30:41 10° N 20:35:24 66° WNW 20:40:10 10° SSW visible
04 Sep ? 07:18:56 10° ESE 07:21:12 13° ENE 07:23:27 10° NE visible
04 Sep ? 21:19:21 10° NW 21:22:13 16° WNW 21:25:06 10° WSW visible
05 Sep ? 20:26:32 10° N 20:31:17 75° WNW 20:36:05 10° SSW visible
06 Sep ? 07:15:30 10° E 07:17:05 11° ENE 07:18:40 10° ENE visible
06 Sep ? 21:14:53 10° NW 21:18:06 18° WNW 21:21:20 10° WSW visible
07 Sep ? 20:22:23 10° N 20:27:10 85° W 20:31:59 10° SSW visible
